Pagina principale
METAR-TAF:

METAR-TAF

Aeroporti :

NASA Shuttle Landing Facility

John F. Kennedy Space Center, Florida, Stati Uniti

latitudine: 28-37N, longitudine: 080-43W, altezza: 3 m

Osservazione

Il bollettino è stato emesso 13 minuti fa, alle 10:56 UTC
Vento calmo
Temperature 14°C
Umidità 82%
Pressione 1018 hPa
Visibilità: 16.1 km
Cielo sereno

METAR: KTTS 211056Z AUTO 00000KT 10SM CLR 14/11 A3007 RMK AO2 SLP187 T01380111 $

Ora: 07:09 (11:09 UTC)


TAF: mancante

Osservazioni e previsioni meteorologiche di più di 4000 aeroporti (messaggi METAR e TAF).

Le stazioni disponibili sono rappresentate dai dischi gialli e rossi sulla carta.

Puntare il mouse per vedere il nome della stazione.

Clicca sopra per visualizzare le osservazioni e previsioni meteorologiche.

Per cambiare la mappa : fare clic sui pulsanti verdi con una croce nera per ingrandire, il pulsante verde con un trattino per diminuire, o sulla freccia verde per le mappe adiacenti.


METAR-TAF: